Погода в Зянгиа

Вьетнам     12°00′27″N   107°41′03″E
темп.,
°C
ветер,
м/с
пор.,
м/с
влажн.,
%
обл.,
%
осадки,
мм/ч
давл.,
гПа
погр.,
м
9 мая, вс
вс901:00+21св1190100 0.0 101013
04:00+20ссв009299 0.0 101013
07:00+21в019520 1.1 1012107
10:00+31зсз114978 0.0 10111396
13:00+34ю123356 0.0 10072880
16:00+26зюз267394 0.4 1007213
19:00+23вюв019070 1.6 100814
22:00+21ююв119765 0.3 101011
10 мая, пн
пн1001:00+21вюв119876 0.3 100915
04:00+20в119947 0.0 100918
07:00+22в12928 0.0 1010145
10:00+32в124654 0.0 10101754
13:00+36ююв112848 0.0 10063170
16:00+30зюз255461 0.1 10061025
19:00+22ююз129211 1.7 100940
22:00+21зюз009712 0.0 101113
11 мая, вт
вт1101:00+20всв009921 0.0 101014
04:00+20в119928 0.0 100917
07:00+23в0189100 0.0 1010158
10:00+29сз1259100 0.6 10101221
13:00+30юз2254100 1.3 10071125
16:00+25зюз2584100 1.0 1006165
19:00+22юз0194100 3.2 100811
22:00+21юз009738 0.0 101012
12 мая, ср
ср1201:00+21всв119926 0.2 100920
04:00+20юв0099100 0.4 100914
07:00+22ссв0194100 0.4 1010117
10:00+32сз1249100 0.1 10091488
13:00+31зсз235293 1.3 10071712
16:00+24в3788100 2.6 1006224
19:00+21ююз15100100 24.4 1009192
22:00+21в1199100 2.8 100944
13 мая, чт
чт1301:00+20вюв119982 4.3 100820
04:00+20в009959 0.1 100813
07:00+22в019553 0.1 1009101
10:00+32ю025037 0.0 10081451
13:00+32з234898 0.1 10051609
16:00+26юз1392100 2.8 1006142
19:00+22ю1199100 10.9 100860
22:00+21юв1199100 0.3 100820